Погода в Сенгилее

Россия / Ульяновская область     53°57′43″N   48°47′26″E
темп.,
°C
ветер,
м/с
пор.,
м/с
влажн.,
%
обл.,
%
осадки,
мм/ч
давл.,
гПа
погр.,
м
17 мая, пн
пн1701:00+18ююв445354 0.0 101743
04:00+17ююз335938 0.3 101725
07:00+19ю496147 0.5 1018190
10:00+24ю464629 0.5 1018300
13:00+27ю563935 0.0 1018768
16:00+28ю55315 0.0 10172127
19:00+25ю33460 0.0 101634
22:00+17ссз226993 0.0 101827
18 мая, вт
вт1801:00+18ю115717 0.0 101811
04:00+17в11639 0.0 101711
07:00+18юв12635 0.0 101862
10:00+23юв23454 0.0 1018322
13:00+26вюв22324 0.0 10171116
16:00+27в22270 0.0 10171472
19:00+25св11405 0.0 101611
22:00+20всв22635 0.0 101718
19 мая, ср
ср1901:00+17вюв34685 0.0 101741
04:00+16вюв47745 0.0 1017101
07:00+17вюв49776 0.0 1017214
10:00+21вюв586016 0.0 1017424
13:00+24вюв57495 0.0 1017844
16:00+25вюв57420 0.0 1016959
19:00+22в48550 0.0 1015184
22:00+18вюв513670 0.0 1015269
20 мая, чт
чт2001:00+17юв411690 0.0 1016255
04:00+15юв410660 0.0 1016215
07:00+16юв513680 0.0 1016382
10:00+20юв811560 0.0 1016612
13:00+22ююв710530 0.0 10161088
16:00+23юв79481 0.0 10151640
19:00+21вюв485820 0.0 1014277
22:00+17ююв226997 0.0 101532
21 мая, пт
пт2101:00+14сз238999 0.0 101529
04:00+13сз119124 0.3 101512
07:00+15юз22812 0.0 1016139
10:00+18с117032 0.1 1017727
13:00+18сз347326 2.6 1018673
16:00+20зсз236333 3.6 1018888
19:00+18зсз357251 0.4 1019158
22:00+15з348274 0.5 102049